Weather History for Block Island, RI

Change the Weather History Date:

Tuesday, March 18, 2014

  Actual Average Record
Temperature  
Mean Temperature 30 °F -  
Max Temperature 35 °F 41 °F 62 °F (1999)
Min Temperature 24 °F 30 °F 10 °F (1967)
Degree Days  
Heating Degree Days 36    
Moisture  
Dew Point 17 °F    
Average Humidity 57    
Maximum Humidity 69    
Minimum Humidity 43    
Precipitation  
Precipitation 0.00 in - - ()
Sea Level Pressure  
Sea Level Pressure 30.25 in    
Wind  
Wind Speed 10 mph (ENE)    
Max Wind Speed 15 mph    
Max Gust Speed 22 mph    
Visibility 10 miles    
Events      
Averages and records for this station are not official NWS values.
T = Trace of Precipitation, MM = Missing Value Source: NWS Daily Summary

Daily Weather History Graph

Daily Weather History Graph

Search for Another Location

Airport:

Trip Planner

Search our weather history database for the weather conditions in past years. The results will help you decide how hot, cold, wet, or windy it might be!

Date:

Astronomy

Mar. 18, 2014 Rise Set
Actual Time 6:53 AM EDT 6:56 PM EDT
Civil Twilight 6:25 AM EDT 7:23 PM EDT
Nautical Twilight 5:53 AM EDT 7:55 PM EDT
Astronomical Twilight 5:20 AM EDT 8:28 PM EDT
Moon 9:11 PM EDT (3/18) 7:39 AM EDT (3/18)
Length of Visible Light 12h 58m
Length of Day
12h 03m
Waning Gibbous, 96% of the Moon is Illuminated
Mar 18
Waning Gibbous
Mar 23
Last Quarter
Mar 30
New
Apr 7
First Quarter
Apr 15
Full

Hourly Weather History & Observations

Time (EDT) Temp. Windchill Dew Point Humidity Pressure Visibility Wind Dir Wind Speed Gust Speed Precip Events Conditions
12:15 AM 26.6 °F 21.2 °F 15.8 °F 64% 30.13 in 10.0 mi East 4.6 mph - N/A   Clear
12:35 AM 26.6 °F 20.0 °F 15.8 °F 64% 30.14 in 10.0 mi East 5.8 mph - N/A   Clear
12:55 AM 26.6 °F 21.2 °F 15.8 °F 64% 30.14 in 10.0 mi East 4.6 mph - N/A   Clear
1:15 AM 26.6 °F 21.2 °F 15.8 °F 64% 30.14 in 10.0 mi ENE 4.6 mph - N/A   Clear
1:35 AM 26.6 °F 20.0 °F 15.8 °F 64% 30.13 in 10.0 mi East 5.8 mph - N/A   Clear
1:55 AM 26.6 °F 18.2 °F 14.0 °F 59% 30.14 in 10.0 mi ENE 8.1 mph - N/A   Clear
2:15 AM 26.6 °F 20.0 °F 12.2 °F 55% 30.14 in 10.0 mi ENE 5.8 mph - N/A   Clear
2:35 AM 26.6 °F 20.0 °F 12.2 °F 55% 30.15 in 10.0 mi NE 5.8 mph - N/A   Clear
2:55 AM 26.6 °F 18.2 °F 10.4 °F 51% 30.15 in 10.0 mi NE 8.1 mph - N/A   Clear
3:15 AM 26.6 °F 19.1 °F 14.0 °F 59% 30.15 in 10.0 mi NE 6.9 mph - N/A   Clear
3:35 AM 28.4 °F 19.1 °F 8.6 °F 43% 30.16 in 10.0 mi NE 10.4 mph - N/A   Clear
3:55 AM 26.6 °F 16.8 °F 8.6 °F 47% 30.16 in 10.0 mi NE 10.4 mph - N/A   Clear
4:15 AM 26.6 °F 15.7 °F 8.6 °F 47% 30.17 in 10.0 mi NE 12.7 mph 16.1 mph N/A   Clear
4:35 AM 26.6 °F 17.5 °F 10.4 °F 51% 30.18 in 10.0 mi NE 9.2 mph 16.1 mph N/A   Clear
4:55 AM 26.6 °F 17.5 °F 10.4 °F 51% 30.18 in 10.0 mi NE 9.2 mph - N/A   Clear
5:15 AM 26.6 °F 16.2 °F 8.6 °F 47% 30.19 in 10.0 mi NE 11.5 mph 17.3 mph N/A   Clear
5:35 AM 26.6 °F 15.7 °F 10.4 °F 51% 30.19 in 10.0 mi NE 12.7 mph 19.6 mph N/A   Clear
5:55 AM 26.6 °F 16.2 °F 8.6 °F 47% 30.19 in 10.0 mi NE 11.5 mph 19.6 mph N/A   Clear
6:15 AM 26.6 °F 15.2 °F 10.4 °F 51% 30.19 in 10.0 mi NE 13.8 mph 19.6 mph N/A   Clear
6:35 AM 26.6 °F 17.5 °F 10.4 °F 51% 30.20 in 10.0 mi NE 9.2 mph - N/A   Clear
6:55 AM 24.8 °F 12.9 °F 10.4 °F 54% 30.19 in 10.0 mi NE 13.8 mph 20.7 mph N/A   Clear
7:15 AM 26.6 °F 16.8 °F 8.6 °F 47% 30.20 in 10.0 mi NE 10.4 mph 21.9 mph N/A   Clear
7:35 AM 26.6 °F 14.7 °F 12.2 °F 55% 30.22 in 10.0 mi NNE 15.0 mph 18.4 mph N/A   Clear
7:55 AM 26.6 °F 15.7 °F 12.2 °F 55% 30.24 in 10.0 mi NNE 12.7 mph 18.4 mph N/A   Clear
8:15 AM 26.6 °F 16.2 °F 12.2 °F 55% 30.26 in 10.0 mi NNE 11.5 mph 16.1 mph N/A   Clear
8:35 AM 28.4 °F 20.4 °F 12.2 °F 51% 30.29 in 10.0 mi NE 8.1 mph - N/A   Clear
8:55 AM 28.4 °F 19.7 °F 12.2 °F 51% 30.28 in 10.0 mi NE 9.2 mph - N/A   Clear
9:15 AM 28.4 °F 17.5 °F 14.0 °F 55% 30.27 in 10.0 mi NNE 13.8 mph - N/A   Clear
9:35 AM 28.4 °F 19.7 °F 15.8 °F 59% 30.28 in 10.0 mi NE 9.2 mph 17.3 mph N/A   Clear
9:55 AM 30.2 °F 20.8 °F 15.8 °F 55% 30.28 in 10.0 mi NE 11.5 mph - N/A   Clear
10:15 AM 30.2 °F 19.3 °F 15.8 °F 55% 30.28 in 10.0 mi NE 15.0 mph 20.7 mph N/A   Clear
10:35 AM 30.2 °F 20.2 °F 17.6 °F 60% 30.27 in 10.0 mi NE 12.7 mph 19.6 mph N/A   Clear
10:55 AM 30.2 °F 20.2 °F 15.8 °F 55% 30.27 in 10.0 mi ENE 12.7 mph 18.4 mph N/A   Clear
11:15 AM 32.0 °F 21.6 °F 17.6 °F 55% 30.27 in 10.0 mi NE 15.0 mph 20.7 mph N/A   Clear
11:35 AM 33.8 °F 24.8 °F 15.8 °F 48% 30.29 in 10.0 mi ENE 12.7 mph 16.1 mph N/A   Clear
11:55 AM 33.8 °F 24.8 °F 15.8 °F 48% 30.29 in 10.0 mi ENE 12.7 mph 19.6 mph N/A   Clear
12:15 PM 33.8 °F 24.3 °F 15.8 °F 48% 30.28 in 10.0 mi ENE 13.8 mph 20.7 mph N/A   Clear
12:35 PM 33.8 °F 24.3 °F 17.6 °F 52% 30.28 in 10.0 mi ENE 13.8 mph 19.6 mph N/A   Clear
12:55 PM 33.8 °F 24.8 °F 19.4 °F 56% 30.28 in 10.0 mi ENE 12.7 mph 18.4 mph N/A   Clear
1:15 PM 35.6 °F 26.6 °F 17.6 °F 48% 30.27 in 10.0 mi ENE 13.8 mph 18.4 mph N/A   Clear
1:35 PM 35.6 °F 26.2 °F 19.4 °F 52% 30.28 in 10.0 mi ENE 15.0 mph - N/A   Clear
1:55 PM 35.6 °F 27.1 °F 17.6 °F 48% 30.28 in 10.0 mi East 12.7 mph - N/A   Clear
2:15 PM 35.6 °F 26.6 °F 19.4 °F 52% 30.29 in 10.0 mi East 13.8 mph - N/A   Clear
2:35 PM 35.6 °F 27.1 °F 19.4 °F 52% 30.29 in 10.0 mi East 12.7 mph - N/A   Clear
2:55 PM 35.6 °F 28.0 °F 21.2 °F 56% 30.29 in 10.0 mi ESE 10.4 mph - N/A   Clear
3:15 PM 35.6 °F 28.0 °F 21.2 °F 56% 30.29 in 10.0 mi East 10.4 mph - N/A   Clear
3:35 PM 35.6 °F 27.5 °F 21.2 °F 56% 30.29 in 10.0 mi East 11.5 mph - N/A   Clear
3:55 PM 35.6 °F 27.5 °F 23.0 °F 60% 30.30 in 10.0 mi ESE 11.5 mph - N/A   Clear
4:15 PM 35.6 °F 28.6 °F 21.2 °F 56% 30.30 in 10.0 mi East 9.2 mph - N/A   Clear
4:35 PM 35.6 °F 27.5 °F 21.2 °F 56% 30.30 in 10.0 mi East 11.5 mph - N/A   Clear
4:55 PM 35.6 °F 28.0 °F 21.2 °F 56% 30.30 in 10.0 mi East 10.4 mph - N/A   Clear
5:15 PM 33.8 °F 25.8 °F 21.2 °F 60% 30.30 in 10.0 mi East 10.4 mph - N/A   Clear
5:35 PM 33.8 °F 26.4 °F 21.2 °F 60% 30.30 in 10.0 mi East 9.2 mph 17.3 mph N/A   Clear
5:55 PM 33.8 °F 25.8 °F 21.2 °F 60% 30.29 in 10.0 mi East 10.4 mph - N/A   Clear
6:15 PM 33.8 °F 25.8 °F 21.2 °F 60% 30.29 in 10.0 mi ENE 10.4 mph - N/A   Clear
6:35 PM 32.0 °F 23.0 °F 21.2 °F 64% 30.30 in 10.0 mi East 11.5 mph - N/A   Clear
6:55 PM 32.0 °F 23.0 °F 21.2 °F 64% 30.29 in 10.0 mi East 11.5 mph - N/A   Clear
7:15 PM 32.0 °F 24.2 °F 21.2 °F 64% 30.29 in 10.0 mi East 9.2 mph 17.3 mph N/A   Clear
7:35 PM 32.0 °F 23.6 °F 21.2 °F 64% 30.29 in 10.0 mi ENE 10.4 mph 18.4 mph N/A   Clear
7:55 PM 32.0 °F 22.5 °F 21.2 °F 64% 30.30 in 10.0 mi ENE 12.7 mph 18.4 mph N/A   Clear
8:15 PM 32.0 °F 22.5 °F 21.2 °F 64% 30.30 in 10.0 mi East 12.7 mph 19.6 mph N/A   Clear
8:35 PM 32.0 °F 22.1 °F 21.2 °F 64% 30.31 in 10.0 mi East 13.8 mph 19.6 mph N/A   Clear
8:55 PM 32.0 °F 22.1 °F 21.2 °F 64% 30.31 in 10.0 mi East 13.8 mph 19.6 mph N/A   Clear
9:15 PM 30.2 °F 20.8 °F 21.2 °F 69% 30.31 in 10.0 mi East 11.5 mph 20.7 mph N/A   Clear
9:35 PM 30.2 °F 19.3 °F 21.2 °F 69% 30.32 in 10.0 mi East 15.0 mph 19.6 mph N/A   Clear
9:55 PM 30.2 °F 19.3 °F 21.2 °F 69% 30.31 in 10.0 mi East 15.0 mph 20.7 mph N/A   Clear
10:15 PM 30.2 °F 19.3 °F 21.2 °F 69% 30.31 in 10.0 mi East 15.0 mph 20.7 mph N/A   Clear
10:35 PM 30.2 °F 20.8 °F 21.2 °F 69% 30.31 in 10.0 mi ENE 11.5 mph - N/A   Clear
10:55 PM 30.2 °F 20.8 °F 21.2 °F 69% 30.31 in 10.0 mi East 11.5 mph 18.4 mph N/A   Clear
11:15 PM 30.2 °F 20.8 °F 21.2 °F 69% 30.30 in 10.0 mi East 11.5 mph 18.4 mph N/A   Clear
11:35 PM 30.2 °F 20.2 °F 19.4 °F 64% 30.30 in 10.0 mi East 12.7 mph 18.4 mph N/A   Clear
11:55 PM 30.2 °F 20.8 °F 21.2 °F 69% 30.30 in 10.0 mi ENE 11.5 mph 16.1 mph N/A   Clear